www.pogodaiklimat.ru

Погода и климат >> Архив погоды >> Россия >> Магаданская область >> Эвенск


ПОГОДА в Эвенске

  • Прогноз погоды в Эвенске
  • Монитор погоды в Эвенске
  • Климат города

АРХИВ ПОГОДЫ в Эвенске

Время (UTC), дата Ветер
(напр.,м/с)
 
Видим.   Явления Облачность Т
(С)
Тd
(С)
f
(%)
Тe
(С)
Тes
(С)
Комфортность P
(гПа)
Po
(гПа)
Тmin
(С)
Tmax
(С)
R
(мм)
R24
(мм)
S
(см)
09 18.04 СВ 4 50 км 8/0
[Ac trans]
+0.2 -3.6 76 -5 -5 1017.6 1016.1 +3.5
12 18.04 С 3 50 км 9/0
[Ac trans]
-0.3 -3.8 77 -5 -5 1019.3 1017.8
15 18.04 С 3 50 км 9/0
[Ac trans]
-0.3 -3.8 77 -5 -5 1019.3 1017.8
18 18.04 СВ 5
{10}
10 км осадки на расстоянии 10/4 1000 м
[Sc As op]
-0.4 -3.1 82 -7 -7 1020.8 1019.3
21 18.04 С 6-10
{11}
2000 м слабый ливневой снег {метель} 10/10 600 м
[Cb cap]
-0.8 -1.9 92 -8 -8 1021.5 1020.0 -1.4 0.5 9
00 19.04 СВ 6-11
{11}
2000 м слабый ливневой снег {метель} 10/10 600 м
[Cb cap]
-0.5 -1.5 93 -7 -7 1021.6 1020.1
03 19.04 С 5-11
{13}
4000 м слабый ливневой снег 10/8 600 м
[Cb cap Ac und]
+0.7 -1.9 83 -5 -5 1021.3 1019.8
06 19.04 СВ 6-10
{11}
4000 м слабый ливневой снег 10/8 600 м
[Cb cap Ac und]
+0.4 -1.4 88 -6 -6 1021.3 1019.8
09 19.04 С 4
{10}
4000 м слабый ливневой снег 10/8 600 м
[Cb cap Ac und]
+0.2 -0.9 92 -5 -5 1021.5 1020.0 +0.9 4
12 19.04 С 5
{10}
2000 м слабый ливневой снег 10/10 600 м
[Cb cap]
+0.2 -0.7 94 -6 -6 1021.4 1019.9
15 19.04 С 6
{10}
4000 м слабый ливневой снег 10/10 600 м
[Cb cap]
+1.2 -1.3 83 -5 -5 1020.6 1019.1
18 19.04 СВ 3
{10}
50 км {ливн. осадки} 10/4 600 м
[Cb calv Ac und]
+1.8 -1.1 81 -2 -2 1020.3 1018.8
21 19.04 С 4 50 км 10/10 600 м
[Cb calv]
+2.4 -0.6 81 -2 -2 1020.8 1019.3 -0.0 1 10
00 20.04 СВ 5 50 км 8/6 1000 м
[Sc Ac trans]
+4.6 -0.3 70 0 +1 1020.6 1019.1
03 20.04 С 3 50 км 8/3 1000 м
[Sc Ac trans]
+5.9 +0.6 69 +3 +6 1020.2 1018.7
06 20.04 С 2 50 км 8/5 1000 м
[Sc Ac trans]
+5.5 +0.1 68 +3 +4 1020.2 1018.7
09 20.04 С 4 50 км 9/8 1260 м
[Sc Ac und]
+3.1 -0.2 79 -1 -1 1020.8 1019.3 +6.0
12 20.04 С 3 50 км 6/3 1000 м
[Sc Ac trans]
+0.9 -1.3 85 -4 -4 1021.5 1020.0
15 20.04 С 2 50 км 4/4 1000 м
[Sc]
+1.0 -1.6 83 -2 -2 1020.9 1019.4
18 20.04 СВ 4 50 км 3/3 1000 м
[Sc]
+1.7 -1.7 78 -3 -3 1021.2 1019.7
21 20.04 СВ 4 50 км ясно +2.4 -0.9 79 -2 0 1021.9 1020.4 +0.8 3
00 21.04 СВ 2 50 км ясно +5.2 -0.2 68 +3 +12 опасность
простуды
1021.6 1020.1
03 21.04 СВ 2 50 км ясно +6.1 +0.2 66 +4 +13 опасность
простуды
1020.9 1019.4
06 21.04 СВ 5 50 км ясно +5.1 -0.4 68 +1 +2 1020.4 1018.9
09 21.04 С 2 50 км 6/0
[Ac trans Ci fib]
+2.9 -0.5 78 0 0 1021.1 1019.6 +6.2
12 21.04 СВ 3 50 км 4/1 600 м
[Sc Ac trans]
+2.6 -0.7 79 -1 -1 1021.0 1019.5
15 21.04 СВ 3 50 км ясно +3.1 -0.7 76 -1 -1 1020.8 1019.3
18 21.04 СВ 4 50 км 10/10 600 м
[Cb calv]
+2.6 -0.7 79 -2 -2 1020.9 1019.4
21 21.04 СВ 2 50 км 9/1 1000 м
[Sc Ac trans Ci fib]
+3.6 -0.4 75 +1 +3 1021.4 1019.9 +1.1 0
00 22.04 В 1 50 км 9/1 1000 м
[Sc Ac trans Ci fib]
+5.7 -0.1 66 +5 +10 1020.7 1019.3
03 22.04 СВ 2 50 км 9/0
[Ac trans Ci fib]
+6.1 -1.2 59 +4 +10 1020.2 1018.7
06 22.04 СВ 2 50 км 4/0
[Ci fib]
+5.7 -1.6 59 +4 +6 1019.9 1018.4
09 22.04 СВ 4 50 км 6/0
[Ci fib]
+2.5 -2.3 71 -2 -2 1020.4 1018.9 +6.3
12 22.04 СВ 3 50 км 1/0
[Ci fib]
+0.6 -3.3 75 -4 -4 1020.7 1019.2
15 22.04 З 2 50 км ясно -0.6 -5.0 72 -4 -4 1020.2 1018.7
18 22.04 СВ 3 50 км ясно -0.7 -6.5 65 -5 -5 1020.6 1019.1
21 22.04 С 2 50 км 1/0
[Ci fib]
+4.6 -6.5 44 +3 +6 1020.8 1019.3 -2.0 0
00 23.04 В 2 50 км ясно +5.9 -4.3 48 +4 +13 опасность
простуды
1021.1 1019.6
03 23.04 СВ 6 50 км ясно +6.8 -4.1 46 +3 +6 1020.6 1019.1
06 23.04 СВ 5 50 км ясно +5.6 -4.2 49 +2 +3 1021.3 1019.8
09 23.04 СВ 4 50 км ясно +2.3 -4.4 61 -2 -2 1022.4 1021.0 +7.2
12 23.04 С 1 50 км ясно -1.1 -5.0 75 -3 -3 1023.2 1021.7
15 23.04 СЗ 1 50 км ясно -2.9 -5.7 81 -5 -5 1022.9 1021.4
18 23.04 С 2 50 км ясно -3.9 -6.1 85 -8 -8 1022.9 1021.4
21 23.04 С 3 50 км ясно +2.3 -5.1 58 -1 +2 1022.7 1021.2 -4.0 0
00 24.04 СВ 3 50 км ясно +7.5 -3.9 44 +5 +13 1021.7 1020.2
03 24.04 СВ 4
{10}
50 км 1/1 1000 м
[Cu med, cong]
+7.4 -3.9 45 +5 +10 1020.4 1019.0
06 24.04 СВ 4 50 км ясно +6.5 -4.1 47 +3 +6 1019.5 1018.0
09 24.04 В 1 50 км ясно +3.4 -3.8 59 +2 +2 1019.4 1017.9 +7.7
12 24.04 СВ 1 50 км ясно -1.5 -4.6 79 -4 -4 1019.0 1017.5
15 24.04 СВ 2 50 км ясно -3.2 -5.3 85 -7 -7 1018.0 1016.5
18 24.04 СВ 2 50 км ясно -3.5 -6.1 82 -8 -7 1017.3 1015.8
21 24.04 В 1 50 км ясно +3.8 -4.4 55 +3 +7 1016.6 1015.1 -3.7 0
00 25.04 ЮЗ 2 50 км ясно +6.1 -4.5 47 +4 +14 опасность
простуды
1015.4 1013.9
03 25.04 ЮЗ 4 50 км ясно +5.4 -2.4 57 +2 +8 1014.2 1012.8

 

Местоположение метеостанции Эвенск (Магаданская область, Россия): широта 61.92 долгота 159.20 высота над уровнем моря 12 м.

В архиве по умолчанию представлена погода в Эвенске за последнюю неделю. Архивные данные за месяц целиком и за предыдущие месяцы, начиная с января 2011 года, Вы можете получить, выбрав интересующий диапазон дат из раскрывающегося списка и нажав кнопку "Ввод!".

Внимание! Время в таблицах - всемирное. Для получения местного времени необходимо прибавить поправку, которая в Эвенске равна 11 ч.

Смотрите также архив погоды в соседних городах и на ближайших метеорологических станциях:

Погода в Лабазной (Магаданская область, Россия) (158 км)
Погода в Омсукчане (Магаданская область, Россия) (188 км)
Погода в Шелихова (Магаданская область, Россия) (225 км)
Погода в Чемурнауте (Камчатский край, Россия) (242 км)
Погода в Кегали (Магаданская область, Россия) (275 км)
Погода в Палане (Камчатский край, Россия) (318 км)
Погода в Балыгычане (Магаданская область, Россия) (340 км)
Погода в Верхне-Пенжино (Камчатский край, Россия) (359 км)
Погода в Среднекане (Магаданская область, Россия) (363 км)
Погода в Оссоре (Камчатский край, Россия) (364 км)

Пояснения к столбцам:

Ветер - указаны скорость ветра в м/с - средняя за 10 мин, порывы в срок и между сроками (в фигурных скобках) и направление, откуда дует ветер: С - северный, СВ - северо-восточный, В - восточный, ЮВ - юго-восточный, Ю - южный, ЮЗ - юго-западный, З - западный, СЗ - северо-западный.
Видимость - горизонтальная дальность видимости в метрах или километрах. При видимости от 1 до 10 км при отсутствии осадков обычно наблюдается дымка, при ухудшении видимости до 1 км и менее - туман. В сухую погоду видимость может ухудшаться дымом, пылью или мглою.
Явления - указаны атмосферные явления, наблюдавшиеся в срок или в последний час перед сроком; фигурными скобками обозначены явления, наблюдавшиеся между сроками (за 1-3 часа до срока); квадратными скобками обозначены град или гололедные отложения с указанием их диаметра в мм.
Облачность - указаны через наклонную черту общая и нижняя облачность в баллах и высота нижней границы облаков в метрах; квадратными скобками обозначены формы облаков: Ci - перистые, Cs - перисто-слоистые, Cc - перисто-кучевые, Ac - высококучевые, As - высокослоистые, Sc - слоисто-кучевые, Ns - слоисто-дождевые, Cu - кучевые, Cb - кучево-дождевые. Подробнее классификацию облаков см. в Атласе облаков (PDF).
T - Температура воздуха - температура, измеренная на высоте 2 м над землей.
Td - Температура точки росы - температура, при понижении до которой содержащийся в воздухе водяной пар достигнет насыщения.
f - Относительная влажность воздуха - влажноcть воздуха, измеренная на высоте 2 м над землей.
Te - Эффективная температура - температура, которую ощущает одетый по сезону человек в тени. Характеристика душности погоды. При расчете учитывается влияние влажности воздуха и скорости ветра на теплоощущения человека.
Tes - Эффективная температура на солнце - температура, которую ощущает человек, с поправкой на солнечный нагрев. Характеристика знойности погоды. Зависит от высоты солнца над горизонтом, облачности и скорости ветра. Ночью, в пасмурную погоду, а также при ветре 12 м/с и более поправка равна нулю.
P - Атмосферное давление - приведенное к уровню моря атмосферное давление.
Po - Атмосферное давление - измеренное на уровне метеостанции атмосферное давление.
Tmin - Минимальная температура - минимум температуры воздуха на высоте 2 м над землей.
Tmax - Максимальная температура - максимум температуры воздуха на высоте 2 м над землей.
R - Количество осадков - Количество выпавших осадков за период времени, мм. При наведении курсора мыши на число - период времени, за который выпало указанное количество осадков.
R24 - Количество осадков - Количество выпавших осадков за 24 часа, мм.
S - Снежный покров - Высота снежного покрова, см. При наведении курсора мыши на число - состояние снежного покрова и степень покрытия местности в баллах.